Powrót do katalogu

FENGYUN 1C DEB

AktywnySSO
NORAD 35239·DEBRIS·🇨🇳 China

Wystrzelony May 10, 1999 z Taiyuan Satellite Launch Center

Loading…

Następne Przeloty (najbliższe 24 godziny)

TLE

ŚwieżeSource: Space-Track

Epoka: Sep 14, 2026, 09:21 UTC

1 35239U 99025DQX 26257.39023519  .00000575  00000-0  59269-3 0  9992
2 35239  99.2976  53.3233 0221609  12.1005 348.5346 13.69886277619044

Śledź FENGYUN 1C DEB w czasie rzeczywistym z AllMySat

Download on the App Store